フィッツシモンズ彗星

C/2018 X2 ( Fitzsimmons )

English version
Home page
Updated on July 9, 2019

---------------------------------------------------------------------

・ プロフィール

発見日 2018年12月8日
発見光度 19.1等
発見者 Alan Fitzsimmons (Asteroid Terrestrial-impact Last Alert System (ATLAS) search program)

・ 写真集

・ 軌道要素

Epoch 2019 July 16.0 TT = JDT 2458680.5
T 2019 July 8.53933 TT                                  MPCW
q   2.1258896            (2000.0)            P               Q
z  +0.0065249      Peri.  162.05030     -0.80546953     -0.57850051
 +/-0.0000066      Node   340.83004     +0.48429116     -0.51737148
e   0.9861287      Incl.   23.06923     +0.34158588     -0.63060598
From 336 observations 2018 Dec. 8-2019 May 13, mean residual 0".5.

・ 星図

・ 光度変化

        m1 = 11.0 + 5 logΔ + 10.0 log r

---------------------------------------------------------------------

軌道要素はM.P.E.C. 2019-L24に掲載されたものです。
星図はステラナビゲータ Ver.10 (アストロアーツ) で作成したものです。
光度グラフはComet for Windowsで作成したものです。

---------------------------------------------------------------------

Copyright(C) Seiichi Yoshida (comet@aerith.net). All rights reserved.